| time (UTC) | temp C | wind direction | speed KPH | gust KPH | rain 1hr cm | rain 24hr cm | rain mn cm | humidity % | barometer mb |
| 20260507023643 | 7 | 49 | 1.6 | 6.4 | 0.00 | 0.00 | 0.00 | 87 | 1016.7 |
| 20260507013545 | 8 | 49 | 3.2 | 6.4 | 0.00 | 0.00 | 0.00 | 86 | 1016.7 |
| 20260507010503 | 8 | 50 | 0.0 | 4.8 | 0.00 | 0.00 | 0.00 | 86 | 1016.8 |
| 20260507003357 | 8 | 50 | 1.6 | 6.4 | 0.00 | 0.00 | 0.00 | 86 | 1016.6 |
| 20260507000344 | 8 | 50 | 1.6 | 6.4 | 0.00 | 0.00 | 0.00 | 86 | 1016.6 |
| 20260506233309 | 8 | 49 | 3.2 | 8.0 | 0.00 | 0.00 | 0.00 | 86 | 1016.6 |
| 20260506215956 | 9 | 51 | 8.0 | 12.9 | 0.00 | 0.00 | 0.00 | 85 | 1016.3 |
| 20260506212914 | 9 | 41 | 8.0 | 14.5 | 0.00 | 0.00 | 0.00 | 85 | 1016.2 |
| 20260506210017 | 8 | 29 | 8.0 | 14.5 | 0.00 | 0.00 | 0.00 | 86 | 1015.8 |
| 20260506195853 | 9 | 13 | 9.7 | 19.3 | 0.00 | 0.00 | 0.00 | 85 | 1015.6 |
| 20260506185523 | 10 | 11 | 11.3 | 17.7 | 0.00 | 0.00 | 0.00 | 82 | 1015.2 |
| 20260506182448 | 10 | 14 | 11.3 | 20.9 | 0.00 | 0.00 | 0.00 | 81 | 1014.8 |
| 20260506172325 | 11 | 11 | 14.5 | 24.1 | 0.00 | 0.00 | 0.00 | 77 | 1014.3 |
| 20260506165359 | 12 | 9 | 9.7 | 19.3 | 0.00 | 0.00 | 0.00 | 72 | 1014.3 |
| 20260506162421 | 12 | 0 | 9.7 | 16.1 | 0.00 | 0.00 | 0.00 | 70 | 1014.3 |
| 20260506155529 | 12 | 0 | 14.5 | 25.7 | 0.00 | 0.00 | 0.00 | 69 | 1014.3 |
| 20260506152559 | 12 | 22 | 16.1 | 25.7 | 0.00 | 0.00 | 0.00 | 65 | 1014.2 |
| 20260506145626 | 13 | 19 | 16.1 | 24.1 | 0.00 | 0.00 | 0.00 | 64 | 1014.2 |
| 20260506132449 | 14 | 11 | 12.9 | 22.5 | 0.00 | 0.00 | 0.00 | 55 | 1014.2 |
| 20260506125331 | 13 | 11 | 16.1 | 25.7 | 0.00 | 0.00 | 0.00 | 59 | 1014.2 |
| 20260506122305 | 13 | 19 | 11.3 | 20.9 | 0.00 | 0.00 | 0.00 | 63 | 1014.3 |
| 20260506115249 | 12 | 36 | 19.3 | 30.6 | 0.00 | 0.00 | 0.00 | 66 | 1014.3 |
| 20260506112205 | 12 | 9 | 19.3 | 32.2 | 0.00 | 0.00 | 0.00 | 70 | 1014.3 |
| 20260506105210 | 12 | 16 | 17.7 | 30.6 | 0.00 | 0.00 | 0.00 | 74 | 1014.6 |
| 20260506102221 | 11 | 13 | 17.7 | 30.6 | 0.00 | 0.00 | 0.00 | 77 | 1014.3 |
| 20260506092232 | 9 | 11 | 12.9 | 25.7 | 0.00 | 0.00 | 0.00 | 84 | 1014.4 |
| 20260506072119 | 9 | 10 | 12.9 | 24.1 | 0.00 | 0.00 | 0.00 | 79 | 1013.9 |
| 20260506062256 | 7 | 355 | 6.4 | 14.5 | 0.00 | 0.00 | 0.00 | 86 | 1014.0 |
| 20260506042247 | 5 | 355 | 3.2 | 9.7 | 0.00 | 0.00 | 0.00 | 89 | 1014.0 |
| 20260506035144 | 5 | 0 | 1.6 | 6.4 | 0.00 | 0.00 | 0.00 | 88 | 1014.1 |
| 20260506032157 | 5 | 5 | 1.6 | 9.7 | 0.00 | 0.00 | 0.00 | 87 | 1014.2 |